[[{"header":{"parameterUnit":"m.s-1","parameterCategory":1,"la1":30.2991,"la2":30.254,"lo1":-89.0895,"lo2":-89.0444,"dy":0.0017,"dx":0.0017,"nx":28,"ny":28,"refTime":"2023-09-14T21:00:00:Z","depth":0,"parameterNumber":2,"parameterNumberName":"U-component_of_WINDS"},"data":[0,0,0,0,0,0,0,0,0,0,0,0,0,0,0,0,0,0,0,0,0,0,0,0,0,0,0,0,0,0,0,0,0,0,0,0,0,0,0,0,0,0,0,0,0,0,0,0,0,0,0,0,0,0,0,0,0,0,-1.5541,-1.5541,0,-1.5524,-1.5524,-1.5524,-1.5446,-1.5444,-1.5442,-1.5441,-1.5424,-1.5426,-1.5427,0,0,0,0,0,0,0,0,0,0,0,0,0,-1.5508,-1.5509,-1.5541,-1.5541,-1.5541,-1.5524,-1.5524,-1.5523,-1.5446,-1.5444,-1.5442,-1.544,-1.5424,-1.5425,-1.5427,0,0,0,0,0,0,0,0,0,0,0,0,0,-1.551,-1.5509,-1.5541,-1.55,-1.5496,-1.5524,-1.5524,-1.5523,-1.5447,-1.5444,-1.5441,-1.5439,-1.5424,-1.5425,-1.5427,-1.5493,0,0,-1.5433,-1.5434,0,0,0,0,0,0,0,0,-1.551,-1.5511,-1.5506,-1.5503,-1.5499,-1.5484,-1.5506,-1.5513,-1.5448,-1.5466,-1.5441,-1.5438,-1.5447,-1.5446,-1.5449,-1.5493,-1.5492,-1.5433,-1.5434,-1.5435,-1.5436,0,0,0,0,0,0,0,-1.551,-1.5512,-1.5534,-1.5506,-1.5502,-1.5483,-1.548,-1.5507,-1.5472,-1.5464,-1.5458,-1.5457,-1.5444,-1.5448,-1.5448,-1.5492,-1.5433,-1.5435,-1.5436,-1.5437,-1.5588,-1.5591,0,0,0,0,0,0,-1.5515,-1.5512,-1.5535,-1.5534,-1.5498,-1.5486,-1.5483,-1.5492,-1.5471,-1.5465,-1.546,-1.5454,-1.5446,-1.5446,-1.5447,-1.5523,-1.5435,-1.5437,-1.5438,-1.5585,-1.5588,-1.5592,0,0,0,0,0,0,-1.5515,-1.5518,-1.5535,-1.5521,-1.5522,-1.5489,-1.55,-1.5493,-1.5496,-1.5468,-1.5461,-1.547,-1.5444,-1.5445,-1.5482,-1.5521,-1.5438,-1.5439,-1.5582,-1.5586,-1.559,-1.5674,0,0,0,0,0,0,-1.5514,-1.5518,-1.5543,-1.5522,-1.5523,-1.5571,-1.5502,-1.5494,-1.55,-1.5492,-1.5476,-1.547,-1.5442,-1.548,-1.5484,-1.5522,-1.5441,-1.5578,-1.5584,-1.5589,-1.5668,-1.5681,-1.5692,0,0,0,0,0,-1.5513,-1.5568,-1.5545,-1.5548,-1.5553,-1.5573,-1.5573,-1.5539,-1.5503,-1.5527,-1.5509,-1.5471,-1.5517,-1.5484,-1.5489,-1.5528,-1.5575,-1.5582,-1.5588,-1.5662,-1.5678,-1.5692,0,0,0,0,0,0,-1.5594,-1.5564,-1.5538,-1.5588,-1.5583,-1.556,-1.5589,-1.5557,-1.5563,-1.5555,-1.5513,-1.551,-1.5554,-1.5544,-1.5509,-1.559,-1.5539,-1.5547,-1.5594,-1.5609,-1.5621,-1.5622,-1.5442,0,0,0,0,0,-1.5618,-1.5636,-1.5609,-1.5655,-1.5654,-1.5623,-1.563,-1.5604,-1.5598,-1.5596,-1.558,-1.5576,-1.5589,-1.5599,-1.561,-1.5667,-1.5662,-1.5696,-1.5708,-1.5718,-1.5725,-1.5754,-1.5768,-1.5613,-1.5613,-1.5613,0,0,-1.5666,-1.5652,-1.5667,-1.5671,-1.5665,-1.5685,-1.5622,-1.5646,-1.566,-1.5599,-1.5633,-1.5622,-1.5615,-1.5662,-1.5682,-1.5656,-1.5767,-1.5726,-1.5735,-1.5736,-1.5762,-1.5777,-1.579,-1.5617,-1.5616,-1.5616,0,0,-1.5765,-1.5757,-1.5794,-1.5789,-1.578,-1.5758,-1.5767,-1.5749,-1.5739,-1.5772,-1.5727,-1.5744,-1.5768,-1.5764,-1.5766,-1.5864,-1.5829,-1.5869,-1.5932,-1.596,-1.5973,-1.5983,-1.6017,-1.603,-1.5876,-1.5876,-1.5876,0,-1.5827,-1.5855,-1.5817,-1.5844,-1.5847,-1.5793,-1.583,-1.5827,-1.5823,-1.5826,-1.5797,-1.5825,-1.5817,-1.5862,-1.5886,-1.589,-1.5898,-1.587,-1.5974,-1.5984,-1.5994,-1.6026,-1.6039,-1.5881,-1.588,-1.588,-1.5879,0,-1.5931,-1.5951,-1.5982,-1.5978,-1.5985,-1.6017,-1.5984,-1.5996,-1.597,-1.5951,-1.5986,-1.5974,-1.5981,-1.599,-1.5965,-1.6032,-1.6016,-1.5981,-1.5929,-1.6014,-1.6043,-1.6055,-1.5888,-1.5886,-1.5885,-1.5884,0,0,-1.6079,-1.6054,-1.6066,-1.6063,-1.6049,-1.6064,-1.6094,-1.6101,-1.6111,-1.611,-1.6134,-1.6156,-1.6123,-1.6125,-1.6099,-1.6124,-1.6202,-1.6086,-1.6085,-1.6107,-1.6274,-1.63,-1.6314,-1.6179,-1.6181,-1.6183,-1.6274,0,-1.6172,-1.622,-1.6187,-1.6241,-1.6259,-1.6209,-1.6235,-1.6229,-1.6214,-1.6227,-1.6209,-1.6225,-1.6181,-1.6182,-1.6205,-1.6187,-1.6234,-1.618,-1.62,-1.6201,-1.6202,-1.633,-1.6357,-1.6444,-1.6286,-1.6288,-1.6289,0,-1.6287,-1.629,-1.6346,-1.6328,-1.6334,-1.6358,-1.6361,-1.6375,-1.6368,-1.6355,-1.6357,-1.6324,-1.6353,-1.6302,-1.634,-1.6304,-1.6311,-1.6303,-1.6306,-1.6305,-1.6249,-1.6332,-1.6471,-1.6484,-1.6307,-1.6306,-1.6304,0,-1.6388,-1.6406,-1.6442,-1.6441,-1.6422,-1.644,-1.6433,-1.6423,-1.6429,-1.6432,-1.6436,-1.6443,-1.6446,-1.6453,-1.6423,-1.6389,-1.6465,-1.6412,-1.6454,-1.6455,-1.6471,-1.647,-1.6612,-1.6478,-1.6478,-1.6478,-1.6477,0,-1.6494,-1.653,-1.6487,-1.6508,-1.6547,-1.651,-1.6549,-1.6537,-1.6529,-1.6547,-1.6505,-1.6523,-1.6484,-1.6498,-1.6476,-1.651,-1.6513,-1.6503,-1.6496,-1.6506,-1.6507,-1.6508,-1.6501,-1.6481,-1.648,-1.648,-1.6479,0,-1.6613,-1.6585,-1.662,-1.6599,-1.6595,-1.6624,-1.6606,-1.6626,-1.6607,-1.6631,-1.6635,-1.6606,-1.6621,-1.6593,-1.6604,-1.6589,-1.6637,-1.6622,-1.6639,-1.6634,-1.6678,-1.6674,-1.6824,-1.6842,-1.6698,-1.6699,-1.67,0,-1.6682,-1.6708,-1.669,-1.6699,-1.6694,-1.671,-1.6715,-1.668,-1.6688,-1.6682,-1.6702,-1.6714,-1.6721,-1.6747,-1.6728,-1.6736,-1.672,-1.6772,-1.6721,-1.673,-1.6719,-1.6717,-1.672,-1.6782,-1.6784,-1.6786,-1.6787,0,-1.6808,-1.6793,-1.6802,-1.6807,-1.6815,-1.6818,-1.6817,-1.6827,-1.679,-1.6801,-1.6815,-1.6821,-1.6832,-1.6844,-1.6848,-1.6841,-1.6808,-1.6803,-1.6813,-1.6823,-1.6831,-1.6826,-1.6667,-1.68,-1.6798,-1.6797,-1.6797,-1.6796,-1.6903,-1.6923,-1.6913,-1.6926,-1.6921,-1.6922,-1.6939,-1.6922,-1.6934,-1.694,-1.6919,-1.6938,-1.6931,-1.6933,-1.6929,-1.6944,-1.6921,-1.6936,-1.6939,-1.6943,-1.6949,-1.683,-1.6945,-1.6945,-1.6944,-1.6944,-1.6944,0,-1.7025,-1.7016,-1.7028,-1.7028,-1.7037,-1.7005,-1.7003,-1.7013,-1.7031,-1.7027,-1.7034,-1.7051,-1.7062,-1.7044,-1.7052,-1.7068,-1.7053,-1.7071,-1.7069,-1.7068,-1.697,-1.696,-1.7083,-1.7083,-1.7083,-1.7083,-1.7083,-1.7083,-1.7089,-1.7122,-1.7106,-1.7137,-1.7128,-1.7146,-1.7147,-1.7148,-1.7144,-1.7164,-1.7173,-1.7161,-1.7151,-1.7159,-1.7168,-1.7162,-1.7167,-1.719,-1.7179,-1.7088,-1.7075,-1.7062,-1.7052,-1.7192,-1.7192,-1.7275,-1.7276,-1.7277]},{"header":{"parameterUnit":"m.s-1","parameterCategory":1,"la1":30.2991,"la2":30.254,"lo1":-89.0895,"lo2":-89.0444,"dy":0.0017,"dx":0.0017,"nx":28,"ny":28,"refTime":"2023-09-14T21:00:00:Z","depth":0,"parameterNumber":3,"parameterNumberName":"V-component_of_WINDS"},"data":[0,0,0,0,0,0,0,0,0,0,0,0,0,0,0,0,0,0,0,0,0,0,0,0,0,0,0,0,0,0,0,0,0,0,0,0,0,0,0,0,0,0,0,0,0,0,0,0,0,0,0,0,0,0,0,0,0,0,-1.4438,-1.4438,0,-1.4486,-1.4486,-1.4487,-1.4506,-1.4506,-1.4506,-1.4505,-1.4553,-1.4554,-1.4555,0,0,0,0,0,0,0,0,0,0,0,0,0,-1.4359,-1.436,-1.4437,-1.4438,-1.4439,-1.4486,-1.4486,-1.4487,-1.4506,-1.4506,-1.4505,-1.4505,-1.4552,-1.4554,-1.4556,0,0,0,0,0,0,0,0,0,0,0,0,0,-1.4399,-1.4361,-1.4437,-1.4454,-1.4456,-1.4486,-1.4486,-1.4487,-1.4506,-1.4506,-1.4505,-1.4505,-1.4552,-1.4554,-1.4556,-1.4572,0,0,-1.4562,-1.4563,0,0,0,0,0,0,0,0,-1.4396,-1.4402,-1.4451,-1.4453,-1.4455,-1.449,-1.4476,-1.4516,-1.4506,-1.4487,-1.4505,-1.4505,-1.4532,-1.4535,-1.4545,-1.4574,-1.4577,-1.4562,-1.4564,-1.4564,-1.4565,0,0,0,0,0,0,0,-1.4394,-1.44,-1.4457,-1.4451,-1.4454,-1.4458,-1.4463,-1.4484,-1.451,-1.4488,-1.449,-1.4495,-1.4533,-1.4543,-1.4546,-1.4577,-1.4562,-1.4564,-1.4565,-1.4566,-1.4622,-1.4622,0,0,0,0,0,0,-1.4389,-1.4397,-1.4455,-1.4458,-1.4425,-1.4459,-1.4466,-1.4479,-1.4509,-1.4514,-1.4496,-1.4496,-1.4539,-1.4544,-1.4548,-1.4569,-1.4564,-1.4566,-1.4568,-1.4622,-1.4622,-1.4622,0,0,0,0,0,0,-1.4387,-1.4394,-1.4453,-1.4428,-1.4436,-1.4461,-1.4476,-1.448,-1.449,-1.4515,-1.4519,-1.4501,-1.4539,-1.4545,-1.4566,-1.4571,-1.4567,-1.4569,-1.4621,-1.4622,-1.4622,-1.4611,0,0,0,0,0,0,-1.4384,-1.4393,-1.44,-1.4428,-1.4437,-1.4471,-1.4476,-1.4481,-1.4493,-1.4495,-1.4521,-1.4526,-1.454,-1.4563,-1.4568,-1.4573,-1.4571,-1.4621,-1.4622,-1.4622,-1.4611,-1.4611,-1.4611,0,0,0,0,0,-1.4382,-1.4395,-1.44,-1.4407,-1.4447,-1.4471,-1.4477,-1.4493,-1.4494,-1.4501,-1.4517,-1.4525,-1.4569,-1.4565,-1.4571,-1.4577,-1.4621,-1.4621,-1.4622,-1.4611,-1.4611,-1.4611,0,0,0,0,0,0,-1.4366,-1.4399,-1.4405,-1.4428,-1.4447,-1.4475,-1.4484,-1.4492,-1.4511,-1.4511,-1.4531,-1.4536,-1.4556,-1.4568,-1.4563,-1.4594,-1.4596,-1.4597,-1.4585,-1.4585,-1.4585,-1.4582,-1.4573,0,0,0,0,0,-1.4365,-1.4383,-1.441,-1.4428,-1.4437,-1.4459,-1.447,-1.4481,-1.4501,-1.4509,-1.4527,-1.4545,-1.4564,-1.4575,-1.4593,-1.4613,-1.4619,-1.462,-1.462,-1.462,-1.4621,-1.4632,-1.4632,-1.4624,-1.4624,-1.4624,0,0,-1.4363,-1.4384,-1.4394,-1.4425,-1.4441,-1.4458,-1.4465,-1.4484,-1.4496,-1.4512,-1.4533,-1.4546,-1.4568,-1.4588,-1.4598,-1.46,-1.4624,-1.462,-1.462,-1.4621,-1.4632,-1.4633,-1.4634,-1.4624,-1.4624,-1.4624,0,0,-1.4369,-1.4387,-1.4403,-1.4419,-1.4443,-1.4457,-1.4461,-1.4488,-1.4497,-1.4519,-1.4531,-1.4546,-1.4577,-1.4592,-1.4603,-1.4614,-1.4622,-1.462,-1.4619,-1.4629,-1.463,-1.4631,-1.4634,-1.4635,-1.4621,-1.4621,-1.4621,0,-1.4364,-1.4392,-1.441,-1.4427,-1.444,-1.4456,-1.4471,-1.4486,-1.4514,-1.4523,-1.4524,-1.4563,-1.4579,-1.4602,-1.4605,-1.4614,-1.4618,-1.4617,-1.4628,-1.4629,-1.463,-1.4634,-1.4635,-1.462,-1.462,-1.462,-1.462,0,-1.4384,-1.4403,-1.4412,-1.444,-1.4454,-1.4471,-1.4491,-1.4503,-1.4512,-1.4526,-1.4548,-1.4567,-1.4589,-1.4596,-1.4605,-1.4621,-1.4621,-1.4625,-1.4627,-1.463,-1.4634,-1.4635,-1.462,-1.462,-1.462,-1.462,0,0,-1.4382,-1.4419,-1.4422,-1.4435,-1.4462,-1.4477,-1.4494,-1.4516,-1.4525,-1.4544,-1.4559,-1.4584,-1.4588,-1.4601,-1.4613,-1.4622,-1.4629,-1.4625,-1.4626,-1.4625,-1.4646,-1.4643,-1.4644,-1.4634,-1.4634,-1.4634,-1.4644,0,-1.4391,-1.4423,-1.4439,-1.4463,-1.4481,-1.4495,-1.4509,-1.4527,-1.4541,-1.4556,-1.4571,-1.4589,-1.4593,-1.4601,-1.461,-1.4626,-1.4633,-1.4625,-1.4647,-1.4647,-1.4641,-1.4646,-1.4643,-1.4651,-1.4646,-1.4646,-1.4646,0,-1.4406,-1.4426,-1.4452,-1.4477,-1.4485,-1.4498,-1.4519,-1.4534,-1.4555,-1.4564,-1.4578,-1.4589,-1.4606,-1.4607,-1.4631,-1.4625,-1.4635,-1.4643,-1.4644,-1.4647,-1.4647,-1.4648,-1.4654,-1.4655,-1.4649,-1.4649,-1.4648,0,-1.4402,-1.4434,-1.4454,-1.4464,-1.4494,-1.4503,-1.4515,-1.4536,-1.4548,-1.4566,-1.4574,-1.4594,-1.4605,-1.462,-1.4635,-1.4634,-1.4657,-1.4659,-1.4665,-1.4664,-1.4669,-1.4668,-1.4676,-1.4675,-1.4675,-1.4675,-1.4675,0,-1.441,-1.4426,-1.4452,-1.4464,-1.4482,-1.45,-1.4516,-1.453,-1.4548,-1.4562,-1.4575,-1.4588,-1.4608,-1.4624,-1.4636,-1.4654,-1.4658,-1.4666,-1.4669,-1.4665,-1.4664,-1.4671,-1.4671,-1.4676,-1.4676,-1.4675,-1.4675,0,-1.4408,-1.4427,-1.4449,-1.4475,-1.4482,-1.4494,-1.4516,-1.4528,-1.4542,-1.456,-1.4565,-1.4586,-1.4605,-1.4622,-1.4647,-1.4655,-1.4673,-1.4677,-1.4666,-1.4668,-1.4673,-1.4672,-1.4685,-1.4688,-1.4685,-1.4685,-1.4685,0,-1.4413,-1.4425,-1.4453,-1.4463,-1.4476,-1.4493,-1.4506,-1.4524,-1.4536,-1.456,-1.4569,-1.4589,-1.4605,-1.4635,-1.4652,-1.4671,-1.4675,-1.4678,-1.4678,-1.4673,-1.4675,-1.4674,-1.4675,-1.4678,-1.4678,-1.4678,-1.4678,0,-1.4418,-1.4427,-1.4445,-1.4465,-1.448,-1.4497,-1.4515,-1.4523,-1.4544,-1.4557,-1.4576,-1.4589,-1.4615,-1.4634,-1.4655,-1.4667,-1.4676,-1.4678,-1.468,-1.4676,-1.4669,-1.4673,-1.4666,-1.4678,-1.4678,-1.4678,-1.4678,-1.4678,-1.4419,-1.4431,-1.4452,-1.4471,-1.4486,-1.4502,-1.4515,-1.453,-1.4547,-1.4569,-1.4579,-1.4598,-1.4618,-1.4647,-1.4659,-1.4674,-1.4676,-1.4679,-1.468,-1.468,-1.4679,-1.4667,-1.4678,-1.4678,-1.4678,-1.4678,-1.4678,0,-1.4425,-1.444,-1.4457,-1.4482,-1.4496,-1.4504,-1.4523,-1.4535,-1.4553,-1.457,-1.4587,-1.4609,-1.4627,-1.4646,-1.4666,-1.4674,-1.4678,-1.4679,-1.4678,-1.4681,-1.4677,-1.4673,-1.4675,-1.4675,-1.4675,-1.4675,-1.4675,-1.4675,-1.443,-1.445,-1.4461,-1.4487,-1.4501,-1.4521,-1.4532,-1.4546,-1.456,-1.4585,-1.46,-1.4613,-1.4631,-1.4651,-1.4669,-1.4674,-1.468,-1.4679,-1.4685,-1.4681,-1.4681,-1.4681,-1.4677,-1.468,-1.468,-1.4687,-1.4687,-1.4687]}]]